This is the latest recevied weather packets stored in our database for station/object KC8BSD. If no packets are shown the sender has not sent any weather packets the latest 10 day(s).
| Time | Temp. | Humidity | Pressure | Rain* | Wind** | Luminosity | Snow |
|---|---|---|---|---|---|---|---|
| 1778077150 | 10.56° C | 59% | 1013.6 hPa | 0 mm | - | 473 W/m² | - |
| 1778076848 | 11.11° C | 58% | 1013.7 hPa | 0 mm | - | 343 W/m² | - |
| 1778076546 | 10.56° C | 61% | 1013.5 hPa | 0 mm | - | 446 W/m² | - |
| 1778076243 | 10.56° C | 62% | 1013.4 hPa | 0 mm | - | 369 W/m² | - |
| 1778075940 | 10° C | 63% | 1013.4 hPa | 0 mm | - | 446 W/m² | - |
| 1778075636 | 10° C | 63% | 1013.2 hPa | 0 mm | - | 395 W/m² | - |
| 1778075333 | 9.44° C | 66% | 1013.3 hPa | 0 mm | - | 344 W/m² | - |
| 1778075029 | 9.44° C | 66% | 1013.2 hPa | 0 mm | - | 379 W/m² | - |
| 1778074726 | 9.44° C | 66% | 1013.3 hPa | 0 mm | - | 401 W/m² | - |
| 1778074423 | 10° C | 65% | 1013.1 hPa | 0 mm | - | 432 W/m² | - |
| 1778074119 | 10° C | 67% | 1013.1 hPa | 0 mm | - | 138 W/m² | - |
| 1778073817 | 10.56° C | 66% | 1013 hPa | 0 mm | - | 371 W/m² | - |
| 1778073515 | 10° C | 66% | 1012.7 hPa | 0 mm | - | 242 W/m² | - |
| 1778073211 | 10° C | 64% | 1012.8 hPa | 0 mm | - | 337 W/m² | - |
| 1778072908 | 10° C | 66% | 1012.7 hPa | 0 mm | - | 193 W/m² | - |
| 1778072604 | 9.44° C | 64% | 1012.5 hPa | 0 mm | - | 283 W/m² | - |
| 1778072302 | 9.44° C | 63% | 1012.4 hPa | 0 mm | - | 255 W/m² | - |
| 1778072000 | 8.89° C | 63% | 1012.6 hPa | 0 mm | - | 278 W/m² | - |
| 1778071699 | 8.89° C | 62% | 1012.6 hPa | 0 mm | - | 264 W/m² | - |
| 1778071395 | 9.44° C | 61% | 1012.4 hPa | 0 mm | - | 237 W/m² | - |
| 1778071093 | 8.89° C | 63% | 1012.5 hPa | 0 mm | - | 192 W/m² | - |
| 1778070792 | 8.33° C | 64% | 1012.3 hPa | 0 mm | - | 203 W/m² | - |
| 1778070488 | 8.33° C | 64% | 1012.1 hPa | 0 mm | - | 200 W/m² | - |
| 1778070185 | 8.33° C | 65% | 1012.1 hPa | 0 mm | - | 176 W/m² | - |
| 1778069883 | 7.78° C | 64% | 1012.1 hPa | 0 mm | - | 162 W/m² | - |
* Rain latest hour (hover to see other rain measurements)
** Current wind speed in m/s (hover to see current wind gust speed)